Regional Weather Roundup
Issued by NWS Nashville, TN

Home | Current Version | Previous Version | Text Only | Print | Product List | Glossary On
Versions: 1 2 3 4 5 6 7 8 9 10 11 12 13 14 15 16 17 18 19 20 21 22 23 24 25 26 27 28 29 30 31 32 33 34 35 36 37 38 39 40 41 42 43 44 45 46 47 48 49 50
000
ASUS44 KOHX 272110
RWROHX
MIDDLE TENNESSEE HOURLY WEATHER ROUNDUP
NATIONAL WEATHER SERVICE NASHVILLE TN
300 PM CST MON FEB 27 2017

NOTE: "FAIR" INDICATES FEW OR NO CLOUDS BELOW 12,000 FEET WITH
NO SIGNIFICANT WEATHER AND/OR OBSTRUCTIONS TO VISIBILITY.

* THESE REPORTS ARE NOT UNDER NWS QUALITY CONTROL AND MAY NOT
  REPORT WEATHER SUCH AS PRECIPITATION AND FOG.


TNZ005>011-023>034-057-059-062>066-078-080-272200
...NORTHERN MIDDLE TENNESSEE...

CITY           SKY/WX    TMP DP  RH WIND       PRES   REMARKS
CLARKSVILLE    MOSUNNY   64  43  46 S7        30.12F
CROSSVILLE     CLOUDY    50  35  56 S10G20    30.20F
GALLATIN       SUNNY     63  43  48 SW9       30.18F
DICKSON        SUNNY     60  42  51 SE9       30.13F
LIVINGSTON     CLOUDY    57  41  55 SW13      30.18F
NASHVILLE      MOSUNNY   61  40  45 S13G20    30.16F
PORTLAND       SUNNY     61  43  51 S14       30.15F
SMYRNA         SUNNY     61  44  53 S8G16     30.17F
SPARTA         CLOUDY    55  43  62 S14       30.17F
SPRINGFIELD    SUNNY     61  43  51 S9G16     30.13S
WEST NASHVILLE SUNNY     61  41  48 S8        30.15S
$$
TNZ056-058-060-061-075>077-079-093>097-272200
...SOUTHERN MIDDLE TENNESSEE...

CITY           SKY/WX    TMP DP  RH WIND       PRES   REMARKS
COLUMBIA       SUNNY     59  48  67 S7        30.13F
FAYETTEVILLE   CLOUDY    55  46  71 S9        30.17F
LEWISBURG      SUNNY     59  45  59 S8        30.16
MCMINNVILLE    CLOUDY    55  45  67 S8        30.18F
MURFREESBORO     N/A     60  43  53 S13       30.16F
SHELBYVILLE    MOSUNNY   59  46  63 SE10      30.18F
TULLAHOMA      CLOUDY    54  45  71 S8        30.18F
WINCHESTER     CLOUDY    54  45  71 SE13      30.19F
$$


...KEY TO REMARKS...
VSB - VISIBILITY IN MILES
WCI - WIND CHILL INDEX
HX  - HEAT INDEX




USA.gov is the U.S. government's official web portal to all federal, state and local government web resources and services.